Regional Weather Roundup
Issued by NWS

Home | Current Version | Previous Version | Text Only | Print | Product List | Glossary On
Versions: 1 2 3 4 5 6 7 8 9 10 11 12 13 14 15 16 17 18 19 20 21 22 23 24 25 26 27 28 29 30 31 32 33 34 35 36 37 38 39 40 41 42 43 44 45 46 47 48 49 50
929
ASUS43 KMPX 262210
RWRMN
WEATHER ROUNDUP FOR MINNESOTA
NATIONAL WEATHER SERVICE TWIN CITIES/CHANHASSEN MN
500 PM CDT MON SEP 26 2016


NOTE: "FAIR" INDICATES FEW OR NO CLOUDS BELOW 12,000 FEET WITH NO
SIGNIFICANT WEATHER AND/OR OBSTRUCTIONS TO VISIBILITY. N/A MEANS
CURRENT SKY AND/OR WEATHER CONDITIONS ARE NOT AVAILABLE.

MNZ060>063-068>070-262300-
   Twin Cities Metro

CITY           SKY/WX    TMP DP  RH WIND       PRES   REMARKS
TWIN CITIES    MOSUNNY   66  32  28 NW28G36   29.88F
ST PAUL        SUNNY     65  33  30 NW26G36   29.88F
CRYSTAL        SUNNY     66  30  26 NW23G31   29.87F
BLAINE         MOSUNNY   66  36  32 W23G36    29.87S
LAKEVILLE      SUNNY     64  34  32 W22G32    29.89S
EDEN PRAIRIE   MOSUNNY   68  32  26 W20G30    29.88S
LAKEVILLE      SUNNY     64  34  32 W22G32    29.89S
SOUTH ST PAUL  SUNNY     66  31  27 W14G24    29.87F
LAKE ELMO      FAIR      63  36  36 W21G32    29.88F
$$
MNZ001>005-007-008-013>017-022>024-027-028-262300-
   Northwest Minnesota

CITY           SKY/WX    TMP DP  RH WIND       PRES   REMARKS
BEMIDJI        CLOUDY    55  42  60 W24G32    29.86R
HALLOCK        SUNNY     59  45  58 N18G31    29.91R
ROSEAU         CLOUDY    55  46  71 W17G30    29.84R
WARROAD        CLOUDY    54  46  76 W17G28    29.81R
THIEF RVR FALL CLOUDY    59  43  55 NW25G33   29.90R
CROOKSTON      MOSUNNY   61  43  51 NW22G32   29.91S
FOSSTON        PTSUNNY   55  39  54 W20G32    29.90S
DETROIT LAKES  SUNNY     61  36  39 NW25G35   29.92F
MOORHEAD       SUNNY     66  32  28 NW25G33   29.93S
PARK RAPIDS    MOSUNNY   61  39  44 NW28G33   29.87S
MAHNOMEN       FAIR      60  41  49 W24G30    29.90S
$$
MNZ006-009>011-018-025>026-262300-
   North Central Minnesota

CITY           SKY/WX    TMP DP  RH WIND       PRES   REMARKS
BAUDETTE       CLOUDY    53  44  71 NW28G39   29.76R
FLAG ISLAND    LGT RAIN  54  48  82 NW21G30   29.75R
INTL FALLS     LGT RAIN  50  48  93 W15G23    29.69S
WASKISH        CLOUDY    54  46  76 W21G31    29.80R
BIG FORK       LGT RAIN  54  45  71 W9G20     29.77R
LONGVILLE      CLOUDY    57  43  58 W18G29    29.84R
GRAND RAPIDS   CLOUDY    54  43  66 NW21G28   29.81R
ORR            LGT RAIN  48  45  87 W13G25    29.68R
COOK           LGT RAIN  48  46  93 W20       29.71S
WALKER         CLOUDY    55  41  58 NW17G26   29.85S
$$
MNZ012-019>021-037-262300-
   Northeast Minnesota

CITY           SKY/WX    TMP DP  RH WIND       PRES   REMARKS
DULUTH         CLOUDY    53  44  71 W16G28    29.73S
ELY            LGT RAIN  48  46  93 W14G23    29.64S
HIBBING        CLOUDY    50  43  77 W17G28    29.74R
EVELETH        LGT RAIN  50  47  91 W16       29.73S
DULUTH HARBOR  DRIZZLE   57  46  67 W18G24    29.74F
TWO HARBORS    CLOUDY    54  48  82 W12G24    29.68S
SILVER BAY     RAIN      52  48  87 W8        29.64S
GRAND MARAIS     N/A     52  50  93 W7        29.55S
G MARAIS ARPRT DRIZZLE   46  43  87 W12G24    29.55S
$$
MNZ029>031-032-039>041-046>048-054>057-064-262300-
   West Central Minnesota

CITY           SKY/WX    TMP DP  RH WIND       PRES   REMARKS
FERGUS FALLS   SUNNY     64  34  32 NW23G33   29.95R
WHEATON        SUNNY     70  34  26 NW21G32   29.97F
MORRIS         SUNNY     68  28  22 NW28G40   29.94S
ALEXANDRIA     SUNNY     64  28  25 NW23G38   29.93F
ELBOW LAKE     FAIR      64  30  27 W24G33    29.94S
GLENWOOD       SUNNY     64  30  27 NW26G38   29.93S
APPLETON       SUNNY     70  27  19 NW22G30   29.95F
BENSON         SUNNY     68  23  18 N21G37    29.95S
ORTONVILLE     SUNNY     66  30  26 NW17G30   29.97S
MADISON          N/A     70  30  23 NW20G32   29.98F
WILLMAR        FAIR      68  30  24 NW25G35   29.95S
$$
MNZ033>034-036-042>043-049>051-058-059-262300-
   Central Minnesota

CITY           SKY/WX    TMP DP  RH WIND       PRES   REMARKS
ST CLOUD       MOSUNNY   64  34  32 W24G30    29.88F
SAUK CENTRE    FAIR      64  32  30 NW26G36   29.91S
PAYNESVILLE    SUNNY     66  30  26 NW20G29   29.92S
AITKIN         CLOUDY    61  36  39 W12G25    29.82R
PINE RIVER     MOSUNNY   59  43  55 NW15G25   29.89R
BRAINERD       MOSUNNY   60  38  43 NW20G28   29.86S
STAPLES        SUNNY     61  36  39 NW20G32   29.89S
LONG PRAIRIE   FAIR      61  34  36 W22G29    29.91S
LITTLE FALLS   MOSUNNY   61  32  33 W20G26    29.88F
LITCHFIELD     SUNNY     66  34  30 W21G33    29.92S
BUFFALO        SUNNY     65  31  27 W18G31    29.90S
MAPLE LAKE     SUNNY     66  35  32 W23G32    29.90F
HUTCHINSON     SUNNY     68  32  26 W22G36    29.93S
$$
MNZ037-044-045-052-053-262300-
   East Central Minnesota

CITY           SKY/WX    TMP DP  RH WIND       PRES   REMARKS
PRINCETON      MOSUNNY   64  37  36 W18G32    29.87S
MORA           MOSUNNY   59  36  41 W16G26    29.85F
CAMBRIDGE      MOSUNNY   63  43  48 W14G24    29.85S
MOOSE LAKE     CLOUDY    57  39  51 W10G16    29.78R
HINCKLEY       MOCLDY    61  41  48 W24G32    29.82S
CLOQUET        CLOUDY    55  39  54 W13G24    29.76S
MCGREGOR       CLOUDY    59  41  51 NW16G22   29.82R
$$
MNZ071>073-080-081-089-090-097-098-262300-
   Southwest Minnesota

CITY           SKY/WX    TMP DP  RH WIND       PRES   REMARKS
MONTEVIDEO     SUNNY     70  34  26 NW24G31   29.98F
GRANITE FALLS  SUNNY     70  32  25 W17G37    29.99S
CANBY          SUNNY     68  33  28 W21G29    30.01S
MARSHALL       SUNNY     68  33  27 NW22G31   29.99F
REDWOOD FALLS  SUNNY     68  31  25 W18G32    29.96F
OLIVIA         SUNNY     70  34  26 W22G30    29.94F
PIPESTONE      SUNNY     70  18  13 NW15G25   30.04S
WINDOM         SUNNY     68  28  22 W21G32    30.00F
WORTHINGTON    SUNNY     67  32  27 W20G32    30.03F
JACKSON        SUNNY     68  21  17 W18G31    30.01F
TRACY          SUNNY     69  33  26 NW13G25   30.00F
SLAYTON        SUNNY     66  30  26 W17G28    30.03F
$$
MNZ065>067-074>077-082>085-091>093-262300-
   South Central Minnesota

CITY           SKY/WX    TMP DP  RH WIND       PRES   REMARKS
NEW ULM        SUNNY     66  30  26 NW23G30   29.95F
ST JAMES       SUNNY     68  32  26 W22G28    29.98F
FAIRMONT       SUNNY     67  31  26 NW22G29   29.99F
GLENCOE        SUNNY     68  35  29 W25G37    29.92S
FARIBAULT      SUNNY     66  32  28 W17G30    29.93R
OWATONNA       SUNNY     66  27  22 W25G37    29.93S
WASECA         SUNNY     64  30  27 W23G33    29.96S
ALBERT LEA     SUNNY     66  28  24 W16G28    29.95F
$$
MNZ078>079-086>088-094>096-262300-
   Southeast Minnesota

CITY           SKY/WX    TMP DP  RH WIND       PRES   REMARKS
ROCHESTER      SUNNY     66  31  27 W23G35    29.91F
RED WING       SUNNY     66  30  26 NW14G21   29.87F
DODGE CENTER   SUNNY     64  28  25 W20G35    29.92S
WINONA         SUNNY     66  34  30 NW14G21   29.88F
AUSTIN         SUNNY     64  30  27 W24G33    29.94S
PRESTON        SUNNY     64  31  29 W22G36    29.93S
$$
ABBREVIATIONS USED IN REMARKS
   TC - TEMPERATURES IN CELSIUS
  WCI - WIND CHILL INDEX
   HX - HEAT INDEX
  VSB - VISIBILITY
$$




USA.gov is the U.S. government's official web portal to all federal, state and local government web resources and services.